Flag for Canada Weather past 2 weeks in Victoria, British Columbia, Canada

Now
41 °F

Partly sunny.


Feels Like: 38 °F
Forecast: 42 / 47 °F
Wind: 5 mph from West

Location: Victoria Int. Airportb. C.

Current Time: Jan 29, 2015 at 8:38:52 AM

Latest Report: Jan 29, 2015 at 8:00 AM


Visibility: 30 mi

Pressure: 30.39 "Hg

Humidity: 93%

Dew point: 39 °F

Location of VictoriaLocation

Historic Weather in Victoria — Graph

°F

Victoria temperature yesterday

Maximum temperature yesterday: 50 °F (at 2:00 PM)
Minimum temperature yesterday: 39 °F (at 5:00 AM)
Average temperature yesterday: 42 °F

Past Weeks' High & Low Weather Summary

 TemperatureHumidityPressure
High59 °F (Jan 24, 4:00 PM)100% (Jan 14, 8:00 AM)30.47 "Hg (Jan 14, 8:00 AM)
Low32 °F (Jan 21, 4:00 AM)58% (Jan 16, 12:00 PM)29.47 "Hg (Jan 18, 1:00 AM)
Average44 °F92%30.16 "Hg
* Reported Jan 14 7:00 AM — Jan 29 7:00 AM, Victoria, Weather by CustomWeather, © 2014

Note: Actual official high and low records may vary slightly from our data, if they occured in-between our weather recording intervals... More about our weather records

Advertising

Victoria weather history for previous 24 hours

 ConditionsComfort  
Time TempWeatherWind HumidityBarometerVisibility
7:00 AM
Jan 29
41 °FPartly cloudy.6 mph93%30.39 "Hg30 mi
6:00 AM39 °FPassing clouds.5 mph100%30.39 "Hg30 mi
5:00 AM37 °FPassing clouds.5 mph100%30.40 "Hg30 mi
4:00 AM39 °FPassing clouds.5 mph100%30.40 "Hg30 mi
3:00 AM41 °FPassing clouds.6 mph93%30.41 "Hg30 mi
2:00 AM39 °FPassing clouds.7 mph93%30.40 "Hg30 mi
1:00 AM37 °FPassing clouds.3 mph93%30.40 "Hg30 mi
12:00 AM37 °FPassing clouds.6 mph100%30.40 "Hg30 mi
11:00 PM
Jan 28
39 °FPassing clouds.7 mph100%30.41 "Hg30 mi
10:00 PM39 °FPartly cloudy.5 mph93%30.40 "Hg30 mi
9:00 PM39 °FPassing clouds.5 mph93%30.40 "Hg30 mi
8:00 PM39 °FClear.6 mph93%30.39 "Hg30 mi
7:00 PM39 °FClear.3 mph100%30.38 "Hg30 mi
6:00 PM39 °FClear.3 mph93%30.38 "Hg30 mi
5:00 PM46 °FScattered clouds.2 mph82%30.38 "Hg30 mi
4:00 PM48 °FBroken clouds.2 mph76%30.38 "Hg30 mi
3:00 PM48 °FScattered clouds.2 mph82%30.38 "Hg30 mi
2:00 PM50 °FScattered clouds.No wind76%30.39 "Hg30 mi
1:00 PM48 °FPartly sunny.5 mph82%30.40 "Hg30 mi
12:00 PM46 °FPartly sunny.6 mph82%30.41 "Hg30 mi
11:00 AM45 °FPartly sunny.3 mph87%30.41 "Hg30 mi
10:00 AM43 °FPartly sunny.6 mph87%30.41 "Hg30 mi
9:00 AM41 °FPartly sunny.6 mph93%30.39 "Hg30 mi
8:00 AM39 °FPartly sunny.5 mph93%30.38 "Hg30 mi
Weather by CustomWeather, © 2014

See weather overviewHow to use our weather pages